Tracking 27122 objects as of 25-Mar-2023
HD Live streaming from Space Station
objects crossing your sky now

SL-24 DEB

Track SL-24 DEB now!
10-day predictions


NORAD ID: 33318
Int'l Code: 2008-040G
Perigee: 575.5 km
Apogee: 593.3 km
Inclination: 98.1 °
Period: 96.2 minutes
Semi major axis: 6955 km
RCS: 5.1176 m2 (large)
Launch date: August 29, 2008
Source: Commonwealth of Independent States (former USSR) (CIS)
Launch site: TYURATAM MISSILE AND SPACE COMPLEX (TTMTR)

Note: This is SATELLITE DEBRIS
Your satellite tracking list
Your tracking list is empty




NASA's NSSDC Master Catalog

Two Line Element Set (TLE):
1 33318U 08040G   23083.61291651  .00012157  00000-0  10683-2 0  9993
2 33318  98.0726 318.9630 0012780 138.4114 221.8081 14.96654866791792
Source of the keplerian elements: AFSPC